map of ADJ home
Great Circle Mapper logo
ADJ - Airport
Location
City:  Amman, Jordan
Name:Marka International Airport
ICAO / IATA:OJAM / ADJ

Details
Type:Airport (Aerodrome, Airfield)
Use:Public/Civil, Military, International (customs port of entry)
Latitude:3158'22"N (31.972703)
Longitude:3559'30"E (35.991569)
Datum:WGS 1984
Elevation:2555 ft (779 m)
Variation:4.48E (WMM2015 magnetic declination)
0.08 annual change
Runways:1
Longest:10745 × 148 ft (3275 × 45 m), paved

Time
Time Zone:UTC+2 (DST+3)
Local Time:

Weather
METAR:OJAM 041100Z 31013KT 7000 NSC 22/06 Q1012 NOSIG
TAF:OJAM 041050Z 0412/0518 31014KT 5000 HZ PROB40 0422/0504 01008KT 3000 FU

Related Locations
Nearby:
Farthest:NTAV: 11832 mi / 19042 km
Raivavae, Tubuai Islands, Austral Islands, PF

Find:

   beyond  
but within

Other Information
Maps:
NOTAMs:
Links:
Sources:

  
flag of Jordan   

Airport Diagram

Airport diagram for ADJ

Airport diagram (OBSOLETE) from NGA

Sectional Chart

Flight Planning
at skyvector.com

Satellite Image

Google Maps Satellite View

 

Copyright © 2004-2015 Karl L. Swartz. All rights reserved.
The Great Circle Mapper name and logo are trademarks of the Great Circle Mapper.
All other trademarks mentioned herein belong to their respective owners.
Please see credits for attibutions and further copyright information.

  Follow gcmap on Facebook Follow gcmap on Twitter Follow gcmap on Google+

hCard Microformat

Geo Microformat